FW7441 Weather Reports


Display with metric or nautical units.
time (UTC)temp
F
wind
direction
speed
MPH
gust
MPH
rain 1hr
in
rain 24hr
in
rain mn
in
humidity
%
barometer
mb
20260831073101 72 205 0.0 0.0 0.00 0.00 0.00 97 1014.2
20260831072556 72 210 0.0 0.0 0.00 0.00 0.00 97 1014.4
20260831072053 72 202 1.0 1.0 0.00 0.00 0.00 97 1014.6
20260831071550 72 200 0.0 0.0 0.00 0.00 0.00 97 1014.3
20260831071046 72 198 0.0 0.0 0.00 0.00 0.00 97 1014.6
20260831070545 72 197 0.0 0.0 0.00 0.00 0.00 97 1014.4
20260831070040 72 197 0.0 0.0 0.00 0.00 0.00 97 1014.6
20260831065538 72 196 0.0 0.0 0.00 0.00 0.00 97 1014.7
20260831065038 72 193 0.0 1.0 0.00 0.00 0.00 97 1014.6
20260831064533 72 212 0.0 1.0 0.00 0.00 0.00 97 1014.7
20260831064029 72 195 0.0 0.0 0.00 0.00 0.00 97 1014.4
20260831063526 72 170 0.0 0.0 0.00 0.00 0.00 97 1014.6
20260831063025 73 188 0.0 0.0 0.00 0.00 0.00 96 1014.6
20260831062520 73 209 0.0 1.0 0.00 0.00 0.00 96 1014.4
20260831062020 73 210 0.0 0.0 0.00 0.00 0.00 96 1014.5
20260831061517 73 199 0.0 1.0 0.00 0.00 0.00 96 1014.6
20260831061014 73 212 0.0 0.0 0.00 0.00 0.00 96 1014.7
20260831060514 73 200 1.0 2.0 0.00 0.00 0.00 96 1014.4
20260831060009 73 195 0.0 1.0 0.00 0.00 0.00 97 1014.3
20260831055503 73 169 2.0 3.0 0.00 0.00 0.00 97 1014.5
20260831054959 73 151 0.0 0.0 0.00 0.00 0.00 97 1014.5
20260831054453 73 162 0.0 0.0 0.00 0.00 0.00 97 1014.6
20260831053953 73 143 0.0 0.0 0.00 0.00 0.00 97 1014.5
20260831053451 73 142 2.0 2.0 0.00 0.00 0.00 98 1014.6
20260831052946 73 170 1.0 1.0 0.00 0.00 0.00 98 1014.7
20260831052445 73 166 0.0 0.0 0.00 0.00 0.00 98 1014.5
20260831051944 73 220 1.0 2.0 0.00 0.00 0.00 98 1014.2
20260831051443 72 157 1.0 2.0 0.00 0.00 0.00 98 1014.5
20260831050937 73 159 2.0 2.0 0.00 0.00 0.00 98 1014.6
20260831050437 72 209 0.0 1.0 0.00 0.00 0.00 98 1014.5
20260831045935 72 143 3.0 5.0 0.00 0.24 0.24 98 1014.5
20260831045435 72 205 1.0 2.0 0.00 0.24 0.24 99 1014.4
20260831044930 72 166 0.0 1.0 0.00 0.24 0.24 99 1014.4
20260831044425 72 156 1.0 1.0 0.00 0.24 0.24 99 1014.3
20260831043921 72 151 0.0 1.0 0.00 0.24 0.24 99 1014.3
20260831043421 72 141 0.0 0.0 0.00 0.24 0.24 99 1014.5
20260831042917 72 113 1.0 2.0 0.00 0.24 0.24 99 1014.5
20260831042416 72 210 0.0 0.0 0.00 0.24 0.24 99 1014.8
20260831041911 72 152 2.0 2.0 0.00 0.24 0.24 99 1014.6
20260831041410 73 169 2.0 2.0 0.00 0.24 0.24 99 1014.8
20260831040905 73 51 1.0 2.0 0.00 0.24 0.24 99 1014.9
20260831040400 73 62 1.0 2.0 0.00 0.24 0.24 99 1015.1
20260831035858 73 346 0.0 1.0 0.00 0.24 0.24 99 1015.0
20260831035357 73 130 2.0 2.0 0.00 0.24 0.24 98 1014.5
20260831034851 73 124 1.0 1.0 0.00 0.24 0.24 98 1014.7
20260831034346 73 113 2.0 2.0 0.00 0.24 0.24 98 1014.5
20260831033836 73 170 1.0 1.0 0.00 0.24 0.24 98 1014.4
20260831033331 73 179 1.0 2.0 0.00 0.24 0.24 98 1014.3
20260831032826 73 187 0.0 1.0 0.00 0.24 0.24 98 1014.6
20260831032320 73 171 3.0 3.0 0.05 0.24 0.24 98 1015.0
20260831031815 73 177 1.0 2.0 0.05 0.24 0.24 98 1014.9
20260831031314 73 244 2.0 3.0 0.00 0.23 0.23 97 1014.7
20260831030810 73 172 4.0 5.0 0.00 0.23 0.23 97 1015.0
20260831030308 73 196 1.0 2.0 0.00 0.23 0.23 97 1015.3
20260831025807 73 214 2.0 2.0 0.00 0.23 0.23 97 1015.6
20260831025306 73 187 0.0 1.0 0.00 0.23 0.23 97 1015.3
20260831024758 73 227 1.0 1.0 0.00 0.23 0.23 97 1015.3
20260831024257 73 254 2.0 2.0 0.00 0.23 0.23 97 1015.6
20260831023756 73 196 1.0 1.0 0.00 0.23 0.23 97 1015.7
20260831023254 73 269 1.0 2.0 0.00 0.23 0.23 96 1015.4
20260831022750 73 197 2.0 3.0 0.00 0.23 0.23 96 1015.3
20260831022249 73 119 3.0 5.0 0.00 0.23 0.23 96 1015.3
20260831021744 73 276 2.0 2.0 0.00 0.23 0.23 96 1015.6
20260831021243 73 184 1.0 2.0 0.00 0.23 0.23 96 1015.5
20260831020740 73 218 0.0 1.0 0.00 0.23 0.23 97 1015.5
20260831020239 73 287 2.0 2.0 0.00 0.23 0.23 97 1015.6
20260831015735 73 233 0.0 0.0 0.00 0.23 0.23 97 1015.5
20260831015230 73 169 1.0 2.0 0.00 0.23 0.23 97 1015.5
20260831014725 73 178 3.0 3.0 0.00 0.23 0.23 97 1015.5
20260831014220 73 186 0.0 0.0 0.00 0.23 0.23 97 1015.3
20260831013717 73 203 3.0 3.0 0.00 0.23 0.23 97 1015.2
20260831013215 73 194 1.0 1.0 0.00 0.23 0.23 97 1015.4
20260831012711 73 190 1.0 1.0 0.00 0.23 0.23 97 1015.5
20260831012206 73 175 1.0 1.0 0.00 0.23 0.23 97 1015.5
20260831011705 73 206 1.0 1.0 0.00 0.23 0.23 97 1015.5
20260831011201 73 216 2.0 2.0 0.00 0.23 0.23 97 1015.3
20260831010657 73 225 0.0 1.0 0.00 0.23 0.23 97 1015.1
20260831010152 73 263 1.0 1.0 0.00 0.23 0.23 97 1015.1
20260831005651 72 208 0.0 1.0 0.00 0.23 0.23 97 1015.1
20260831005147 72 217 2.0 2.0 0.00 0.23 0.23 97 1015.2
20260831004643 72 221 3.0 3.0 0.00 0.23 0.23 97 1015.2
20260831004138 72 223 1.0 1.0 0.00 0.23 0.23 97 1015.0
20260831003634 72 106 1.0 1.0 0.00 0.23 0.23 97 1015.1
20260831003130 72 222 1.0 1.0 0.00 0.23 0.23 97 1015.0
20260831002628 72 220 1.0 2.0 0.00 0.23 0.23 97 1015.2
20260831002124 72 204 4.0 5.0 0.00 0.23 0.23 97 1015.2
20260831001619 72 186 1.0 1.0 0.00 0.23 0.23 98 1015.2
20260831001115 72 230 3.0 5.0 0.00 0.23 0.23 98 1015.0
20260831000612 72 147 3.0 5.0 0.00 0.23 0.23 98 1014.7
20260831000111 72 231 1.0 2.0 0.00 0.23 0.23 98 1014.8
20260830235610 72 218 4.0 6.0 0.00 0.23 0.23 98 1014.7
20260830235105 72 170 2.0 3.0 0.07 0.23 0.23 98 1014.5
20260830234600 72 173 3.0 5.0 0.07 0.23 0.23 97 1014.6
20260830234055 72 82 2.0 2.0 0.00 0.22 0.22 97 1014.5
20260830233550 73 197 0.0 1.0 0.05 0.22 0.22 97 1014.9
20260830233046 73 163 1.0 1.0 0.05 0.22 0.22 97 1015.2
20260830232542 73 203 0.0 1.0 0.00 0.21 0.21 96 1015.3
20260830232038 73 170 0.0 0.0 0.00 0.21 0.21 96 1015.3
20260830231534 73 210 1.0 2.0 0.00 0.21 0.21 96 1015.2
20260830231033 73 229 2.0 2.0 0.00 0.21 0.21 96 1015.2
20260830230528 73 195 0.0 1.0 0.00 0.21 0.21 96 1015.4
20260830230023 73 216 1.0 1.0 0.07 0.21 0.21 96 1015.3
20260830225518 73 203 3.0 3.0 0.07 0.21 0.21 95 1015.3
20260830225017 73 186 1.0 1.0 0.00 0.20 0.20 95 1015.5
20260830224516 73 227 0.0 1.0 0.00 0.20 0.20 95 1015.4
20260830224013 73 269 1.0 1.0 0.00 0.20 0.20 95 1015.6
20260830223510 73 177 0.0 1.0 0.05 0.20 0.20 94 1015.6
20260830223009 73 199 1.0 1.0 0.05 0.20 0.20 94 1015.8
20260830222504 73 203 2.0 3.0 0.00 0.19 0.19 93 1015.6
20260830222000 74 174 2.0 3.0 0.00 0.19 0.19 92 1015.6
20260830221455 74 198 0.0 1.0 0.07 0.19 0.19 91 1015.4
20260830220945 75 202 0.0 1.0 0.07 0.19 0.19 90 1015.5
20260830220445 75 110 1.0 2.0 0.00 0.18 0.18 89 1015.6
20260830215937 75 240 1.0 1.0 0.00 0.18 0.18 88 1015.7
20260830215432 75 194 1.0 1.0 0.00 0.18 0.18 88 1015.6
20260830214927 75 221 1.0 1.0 0.00 0.18 0.18 88 1015.5
20260830214423 75 218 3.0 5.0 0.00 0.18 0.18 87 1015.4
20260830213922 76 167 2.0 2.0 0.00 0.18 0.18 87 1015.2
20260830213418 76 141 3.0 3.0 0.00 0.18 0.18 86 1015.4
20260830212913 76 190 3.0 5.0 0.00 0.18 0.18 85 1015.4
20260830212409 76 248 0.0 1.0 0.00 0.18 0.18 85 1015.6
20260830211908 76 212 2.0 2.0 0.00 0.18 0.18 85 1015.5
20260830211402 76 153 2.0 3.0 0.00 0.18 0.18 84 1015.4
20260830210858 77 214 1.0 1.0 0.00 0.18 0.18 84 1015.7
20260830210357 77 183 7.0 9.0 0.00 0.18 0.18 84 1015.5
20260830205855 78 215 0.0 3.0 0.00 0.18 0.18 86 1015.7
20260830205354 78 169 1.0 1.0 0.00 0.18 0.18 85 1015.3
20260830204849 77 151 2.0 3.0 0.00 0.18 0.18 87 1015.5
20260830204348 77 205 1.0 1.0 0.00 0.18 0.18 89 1015.6
20260830203844 77 213 1.0 1.0 0.00 0.18 0.18 89 1015.6
20260830203341 77 177 0.0 0.0 0.00 0.18 0.18 89 1015.5
20260830202839 77 198 0.0 0.0 0.00 0.18 0.18 86 1016.0
20260830202335 77 229 1.0 1.0 0.00 0.18 0.18 85 1015.8
20260830201830 78 220 0.0 0.0 0.00 0.18 0.18 85 1015.9
20260830201324 77 304 2.0 3.0 0.00 0.18 0.18 85 1015.8
20260830200820 77 229 1.0 1.0 0.00 0.18 0.18 86 1015.7
20260830200319 77 243 2.0 2.0 0.00 0.18 0.18 86 1015.5
20260830195815 77 244 0.0 1.0 0.00 0.18 0.18 87 1015.6
20260830195314 76 169 1.0 1.0 0.00 0.18 0.18 86 1015.4
20260830194813 76 173 3.0 3.0 0.00 0.18 0.18 88 1015.5
20260830194306 75 184 1.0 1.0 0.00 0.18 0.18 90 1015.4
20260830193801 75 222 0.0 0.0 0.00 0.18 0.18 91 1015.4
20260830193255 74 173 1.0 1.0 0.00 0.18 0.18 91 1015.3
20260830192752 74 191 0.0 0.0 0.00 0.18 0.18 92 1015.2
20260830192246 75 207 0.0 0.0 0.00 0.18 0.18 91 1015.3
20260830191742 75 195 1.0 1.0 0.12 0.18 0.18 90 1015.3
20260830191241 76 250 0.0 1.0 0.19 0.18 0.18 86 1015.2
20260830190737 77 212 0.0 0.0 0.07 0.16 0.16 83 1015.5
20260830190232 77 187 1.0 1.0 0.00 0.15 0.15 82 1015.6
20260830185730 77 160 2.0 3.0 0.00 0.15 0.15 82 1015.3
20260830185226 77 235 2.0 2.0 0.00 0.15 0.15 82 1015.3
20260830184725 78 221 1.0 1.0 0.00 0.15 0.15 82 1015.5
20260830184225 78 237 1.0 1.0 0.00 0.15 0.15 80 1015.5
20260830183720 79 217 1.0 1.0 0.00 0.15 0.15 77 1015.5
20260830183215 79 177 1.0 2.0 0.00 0.15 0.15 76 1015.8
20260830182710 79 227 1.0 1.0 0.00 0.15 0.15 75 1016.0
20260830182207 80 254 1.0 2.0 0.00 0.15 0.15 75 1015.8
20260830181703 80 308 1.0 1.0 0.00 0.15 0.15 73 1015.1
20260830181203 80 207 1.0 1.0 0.00 0.15 0.15 71 1014.7
20260830180701 81 219 2.0 5.0 0.00 0.15 0.15 69 1014.4
20260830180156 82 126 3.0 5.0 0.00 0.15 0.15 69 1014.3
20260830175655 82 198 3.0 5.0 0.00 0.15 0.15 67 1014.2
20260830175150 84 210 7.0 10.0 0.00 0.15 0.15 64 1014.1
20260830174646 84 241 5.0 6.0 0.00 0.15 0.15 66 1014.0
20260830174141 84 232 4.0 6.0 0.00 0.15 0.15 67 1014.3
20260830173636 82 114 2.0 3.0 0.00 0.15 0.15 70 1014.6
20260830173131 81 238 4.0 5.0 0.00 0.15 0.15 71 1014.3
20260830172628 80 192 2.0 2.0 0.00 0.15 0.15 71 1014.3
20260830172124 80 274 4.0 6.0 0.00 0.15 0.15 72 1014.4
20260830171624 80 211 3.0 6.0 0.00 0.15 0.15 71 1014.6
20260830171119 80 147 5.0 8.0 0.00 0.15 0.15 73 1014.5
20260830170614 80 166 5.0 10.0 0.00 0.15 0.15 73 1014.4
20260830170113 80 210 5.0 7.0 0.00 0.15 0.15 74 1014.4
20260830165608 80 193 5.0 9.0 0.00 0.15 0.15 73 1014.5
20260830165103 81 202 2.0 2.0 0.00 0.15 0.15 73 1014.5
20260830164559 82 199 3.0 3.0 0.00 0.15 0.15 72 1014.5
20260830164055 82 193 3.0 5.0 0.00 0.15 0.15 73 1014.8
20260830163552 83 192 2.0 6.0 0.00 0.15 0.15 71 1014.4
20260830163051 82 255 6.0 7.0 0.00 0.15 0.15 72 1014.4
20260830162547 82 247 4.0 7.0 0.00 0.15 0.15 70 1014.5
20260830162042 82 147 4.0 5.0 0.00 0.15 0.15 72 1014.5
20260830161536 81 211 3.0 6.0 0.00 0.15 0.15 73 1014.5
20260830161031 81 307 5.0 6.0 0.00 0.15 0.15 74 1014.4
20260830160527 82 246 3.0 5.0 0.00 0.15 0.15 74 1014.3
20260830160023 81 253 5.0 5.0 0.00 0.15 0.15 74 1014.4
20260830155519 80 253 2.0 3.0 0.00 0.15 0.15 75 1014.4
20260830155014 80 202 1.0 1.0 0.00 0.15 0.15 75 1014.4
20260830154509 80 178 1.0 2.0 0.00 0.15 0.15 75 1014.7
20260830154006 80 227 1.0 2.0 0.00 0.15 0.15 77 1014.4
20260830153502 79 190 5.0 6.0 0.00 0.15 0.15 76 1014.5
20260830153001 79 247 5.0 6.0 0.00 0.15 0.15 77 1014.7
20260830152456 78 144 4.0 6.0 0.00 0.15 0.15 79 1014.4
20260830151955 78 225 5.0 6.0 0.00 0.15 0.15 79 1014.6
20260830151454 78 246 4.0 6.0 0.00 0.15 0.15 81 1014.6
20260830150949 77 236 6.0 8.0 0.00 0.15 0.15 81 1014.9
20260830150444 77 184 3.0 5.0 0.00 0.15 0.15 82 1014.5
20260830145944 76 235 5.0 6.0 0.00 0.15 0.15 84 1014.5
20260830145438 76 151 2.0 2.0 0.00 0.15 0.15 85 1014.4
20260830144934 75 193 5.0 7.0 0.00 0.15 0.15 86 1014.6
20260830144431 75 207 3.0 5.0 0.00 0.15 0.15 87 1014.7
20260830143930 74 144 4.0 6.0 0.00 0.15 0.15 88 1014.7
20260830143426 74 229 3.0 5.0 0.00 0.15 0.15 88 1014.7
20260830142925 73 222 4.0 6.0 0.00 0.15 0.15 89 1015.0
20260830142420 73 290 5.0 9.0 0.00 0.15 0.15 90 1014.9
20260830141920 72 258 3.0 3.0 0.00 0.15 0.15 92 1015.1
20260830141416 72 181 4.0 6.0 0.00 0.15 0.15 93 1014.9
20260830140911 71 212 4.0 6.0 0.00 0.15 0.15 93 1014.9
20260830140406 70 137 1.0 3.0 0.00 0.15 0.15 95 1014.8
20260830135905 70 114 3.0 3.0 0.00 0.15 0.15 96 1014.9
20260830135401 69 155 1.0 2.0 0.00 0.15 0.15 97 1014.9
20260830134856 69 238 1.0 2.0 0.00 0.15 0.15 97 1014.7
20260830134352 68 134 3.0 5.0 0.00 0.15 0.15 97 1015.0
20260830133847 68 209 3.0 3.0 0.00 0.15 0.15 98 1014.9
20260830133342 68 208 3.0 5.0 0.00 0.15 0.15 98 1015.1
20260830132838 68 215 3.0 5.0 0.00 0.15 0.15 98 1015.0
20260830132334 68 204 4.0 6.0 0.00 0.15 0.15 98 1015.1
20260830131833 67 198 3.0 5.0 0.00 0.15 0.15 98 1015.2
20260830131332 67 172 2.0 3.0 0.00 0.15 0.15 98 1015.3
20260830130828 67 188 2.0 3.0 0.00 0.15 0.15 98 1015.4
20260830130323 67 225 1.0 1.0 0.00 0.15 0.15 98 1015.6
20260830125822 67 187 3.0 3.0 0.00 0.15 0.15 98 1015.8
20260830125318 67 251 1.0 1.0 0.00 0.15 0.15 98 1015.4
20260830124815 67 146 4.0 5.0 0.12 0.15 0.15 98 1015.5
20260830124310 67 252 3.0 5.0 0.47 0.15 0.15 98 1015.4
20260830123807 68 125 2.0 3.0 0.47 0.13 0.13 97 1015.5
20260830123303 68 216 3.0 3.0 0.19 0.08 0.08 96 1015.6
20260830122801 68 221 2.0 5.0 0.07 0.05 0.05 96 1016.0
20260830122255 68 137 2.0 2.0 0.12 0.05 0.05 95 1016.0
20260830121751 69 92 3.0 3.0 0.12 0.04 0.04 94 1016.1
20260830121250 69 310 2.0 5.0 0.07 0.03 0.03 93 1016.3
20260830120745 69 225 3.0 5.0 0.05 0.02 0.02 92 1016.0
20260830120241 70 229 3.0 5.0 0.05 0.02 0.02 90 1015.8
20260830115738 70 229 1.0 1.0 0.00 0.01 0.01 88 1015.5
20260830115232 70 184 4.0 6.0 0.00 0.01 0.01 88 1015.3
20260830114729 70 250 4.0 5.0 0.00 0.01 0.01 88 1015.6
20260830114223 70 210 1.0 3.0 0.00 0.01 0.01 88 1015.6
20260830113719 70 216 1.0 2.0 0.00 0.01 0.01 88 1015.7
20260830113213 70 180 0.0 1.0 0.00 0.01 0.01 88 1015.6
20260830112709 70 264 4.0 6.0 0.00 0.01 0.01 88 1015.5
20260830112205 69 172 1.0 2.0 0.00 0.01 0.01 89 1015.2
20260830111701 69 227 3.0 5.0 0.00 0.01 0.01 89 1015.3
20260830111156 69 215 4.0 7.0 0.00 0.01 0.01 89 1015.0
20260830110651 69 150 3.0 3.0 0.00 0.01 0.01 89 1015.1
20260830110147 69 223 2.0 5.0 0.00 0.01 0.01 90 1015.0
20260830105641 69 180 2.0 2.0 0.00 0.01 0.01 89 1015.1
20260830105137 70 205 3.0 3.0 0.07 0.01 0.01 88 1014.9
20260830104634 71 170 1.0 2.0 0.07 0.01 0.01 86 1015.1
20260830104131 72 144 2.0 2.0 0.00 0.00 0.00 81 1014.9
20260830103629 72 149 4.0 6.0 0.00 0.00 0.00 80 1015.1
20260830103124 72 271 3.0 3.0 0.00 0.00 0.00 79 1015.2
20260830102618 72 161 2.0 2.0 0.00 0.00 0.00 79 1015.0
20260830102114 72 309 1.0 2.0 0.00 0.00 0.00 79 1014.7
20260830101609 72 200 2.0 3.0 0.00 0.00 0.00 79 1014.7
20260830101109 72 245 2.0 2.0 0.00 0.00 0.00 79 1014.8
20260830100609 72 233 1.0 2.0 0.00 0.00 0.00 79 1014.7
20260830095557 72 232 3.0 3.0 0.00 0.00 0.00 79 1014.8
20260830095053 72 207 3.0 5.0 0.00 0.00 0.00 78 1014.5
20260830094549 72 168 4.0 6.0 0.00 0.00 0.00 79 1014.7
20260830094044 72 208 3.0 3.0 0.00 0.00 0.00 79 1014.5
20260830093539 72 181 1.0 2.0 0.00 0.00 0.00 79 1014.8
20260830093036 72 199 2.0 2.0 0.00 0.00 0.00 78 1014.4
20260830092530 72 156 5.0 6.0 0.00 0.00 0.00 78 1014.5
20260830092027 72 209 2.0 2.0 0.00 0.00 0.00 78 1014.4
20260830091522 72 232 2.0 2.0 0.00 0.00 0.00 78 1014.5
20260830091021 72 183 3.0 5.0 0.00 0.00 0.00 77 1014.6
20260830090516 72 167 2.0 3.0 0.00 0.00 0.00 77 1014.5
20260830090011 72 268 6.0 9.0 0.00 0.00 0.00 77 1014.3
20260830085506 72 233 5.0 7.0 0.00 0.00 0.00 77 1014.7
20260830085002 72 194 1.0 2.0 0.00 0.00 0.00 77 1014.5
20260830084457 72 193 1.0 2.0 0.00 0.00 0.00 77 1014.4
20260830083952 72 227 3.0 5.0 0.00 0.00 0.00 77 1014.5
20260830083447 72 231 2.0 3.0 0.00 0.00 0.00 77 1014.6
20260830082947 72 147 3.0 3.0 0.00 0.00 0.00 77 1014.8
20260830082443 72 139 3.0 5.0 0.00 0.00 0.00 77 1014.8
20260830081942 72 126 2.0 3.0 0.00 0.00 0.00 77 1015.0
20260830081438 72 228 2.0 2.0 0.00 0.00 0.00 77 1015.0
20260830080938 72 199 3.0 5.0 0.00 0.00 0.00 76 1015.2
20260830080434 72 255 3.0 3.0 0.00 0.00 0.00 76 1015.2
20260830075933 72 182 3.0 5.0 0.00 0.00 0.00 76 1015.3
20260830075428 72 189 1.0 2.0 0.00 0.00 0.00 76 1015.4
20260830074924 72 225 1.0 2.0 0.00 0.00 0.00 75 1015.5
20260830074419 73 187 1.0 1.0 0.00 0.00 0.00 75 1015.4
20260830073914 73 209 2.0 3.0 0.00 0.00 0.00 75 1015.4
20260830073411 73 184 2.0 2.0 0.00 0.00 0.00 76 1015.6